Estatísticas

Estitisticas de desempenho de todos os tempos
Estatísticas de Equipe
Estatísticas de atividade no jogo
Estatísticas do fórum
Estatísticas das nações
Outras estatísticas
Estatísticas de conquistas
Estatísticas de pessoal
Estatísticas dos Apoiadores do GPRO

Carreiras de gerentes recentemente atualizadas
 
# Nome do Gerente Grupo Atualizado
1. Zé Pedro Paula Amateur - 82 Hoje às 18:44:30
2. Csongor Szabó Rookie - 11 Hoje às 18:15:09
3. Stefan Gommans Master - 2 Hoje às 17:55:57
4. Mikko Suhonen Elite Hoje às 17:02:28
5. Paul Bright Amateur - 10 Hoje às 15:23:55
6. Bartek Nowak Amateur - 28 Hoje às 13:42:40
7. Frank Kiebler Rookie - 73 Hoje às 12:37:14
8. Rafal Celejewski Pro - 22 Ontem às 23:22:01
9. Nigel Donovan Amateur - 72 Ontem às 22:59:07
10. Markus Zrim Amateur - 56 Ontem às 21:56:23
11. Vladimir Valis Amateur - 85 Ontem às 21:13:59
12. Mike Bennett Master - 3 Ontem às 18:29:26
13. Marco Anastasi Amateur - 14 Ontem às 16:27:49
14. Wayne Laundon Amateur - 83 Ontem às 11:27:00
15. Yakup Paçacı Pro - 11 Ontem às 11:22:08
16. Gabriel Arbona Amateur - 11 Ontem às 00:38:18
17. Vittorio Timpanaro Amateur - 33 20 Set 2020, 18:30:00
18. Leo Impiglia Rookie - 87 20 Set 2020, 17:19:12
19. Jy Ryster Rookie - 7 20 Set 2020, 15:55:52
20. Raul Guedes Rookie - 122 20 Set 2020, 13:31:29
21. Amitesh Patnaik Amateur - 52 20 Set 2020, 12:36:14
22. Mike Bell Amateur - 86 20 Set 2020, 12:18:06
23. Mack Cotton Amateur - 4 20 Set 2020, 04:39:44
24. Marcus Probert Amateur - 38 20 Set 2020, 04:16:22
25. Henrique Hughes Paunero Amateur - 57 20 Set 2020, 01:32:55
26. Guido Simonetta Pro - 22 20 Set 2020, 00:50:24
27. Iskren Ivanov Amateur - 88 19 Set 2020, 23:34:26
28. Jason Claydon Pro - 8 19 Set 2020, 23:05:01
29. Torge Thorsson Rookie - 51 19 Set 2020, 21:25:06
30. Anthony Jonville Amateur - 47 19 Set 2020, 20:09:45
31. Juha Korhonen Amateur - 60 19 Set 2020, 19:38:28
32. Marcelo Nobre Amateur - 30 19 Set 2020, 16:20:10
33. Patrick Hertach Rookie - 116 19 Set 2020, 15:34:20
34. Ahmet Sonverdi Master - 4 19 Set 2020, 11:11:18
35. Daniel López Fanjul Amateur - 83 19 Set 2020, 11:07:06
36. Terence Webb Amateur - 4 19 Set 2020, 10:43:43
37. Fabrice Renaudet Amateur - 27 19 Set 2020, 09:17:56
38. Tim Prince Amateur - 82 19 Set 2020, 04:15:33
39. Esteban Florentin Rookie - 28 19 Set 2020, 03:15:29
40. Alexander Rowlands Amateur - 26 19 Set 2020, 02:04:19
41. Paulo Guarim Amateur - 71 19 Set 2020, 02:02:36
42. Dean Francis Pro - 7 19 Set 2020, 01:48:19
43. Marcelo Tavares Amateur - 60 19 Set 2020, 01:21:13
44. Jorge Luis Muñoz Rookie - 82 19 Set 2020, 00:53:19
45. Rafael Venancio Rookie - 128 18 Set 2020, 23:43:15
46. Laurent Qazar Amateur - 11 18 Set 2020, 22:55:49
47. István Hengl Pro - 10 18 Set 2020, 22:36:37
48. Elio Nisco Rookie - 11 18 Set 2020, 22:36:27
49. Ethan Littlejohns Elite 18 Set 2020, 22:31:12
50. Kuba Szajbel Elite 18 Set 2020, 22:07:45
51. Alexander Van Akkooi Amateur - 19 18 Set 2020, 22:06:28
52. Cameron Halsall Amateur - 25 18 Set 2020, 22:06:25
53. Demeter Muller Rookie - 111 18 Set 2020, 21:59:58
54. Henrik Malmberg Pro - 9 18 Set 2020, 21:58:54
55. Quentin Rieg Rookie - 23 18 Set 2020, 21:39:17
56. Richard Luijendijk Amateur - 50 18 Set 2020, 21:36:31
57. Marco Ferraz Amateur - 47 18 Set 2020, 19:13:09
58. Marc Meuleman Rookie - 102 18 Set 2020, 18:44:01
59. Alain Routhier Pro - 6 18 Set 2020, 18:08:00
60. Adir Babaros Rookie - 153 18 Set 2020, 17:22:15
61. Marco Conti Amateur - 61 18 Set 2020, 15:55:32
62. Xavier Porta Pro - 17 18 Set 2020, 15:07:28
63. Jorge Gaspar Amateur - 37 18 Set 2020, 08:24:59
64. Hernan Labourdette Amateur - 80 18 Set 2020, 04:08:38
65. Stiven Peraza Amateur - 16 17 Set 2020, 21:15:31
66. Rafael Margarido Pro - 2 17 Set 2020, 19:27:26
67. Niels Van Heijster Pro - 12 17 Set 2020, 10:44:33
68. Pedro Filipe Rookie - 156 17 Set 2020, 09:27:24
69. Daniel Rosa Pro - 23 17 Set 2020, 04:45:22
70. Andrea Squizzato Elite 17 Set 2020, 01:20:25
71. Iveta Lazdāne Amateur - 78 16 Set 2020, 19:58:29
72. Bok Naai Rookie - 153 16 Set 2020, 17:04:42
73. Maciek Paruch Amateur - 71 16 Set 2020, 16:59:28
74. Tomi Valtanen Rookie - 61 16 Set 2020, 14:21:11
75. Alexander Hoppe Amateur - 54 16 Set 2020, 13:08:32
76. Yan Chen Cheong Rookie - 52 16 Set 2020, 06:41:37
77. Roy Douglass Amateur - 73 16 Set 2020, 04:19:30
78. Ademir Vieira Pro - 9 16 Set 2020, 04:03:27
79. Adrian Mihai Rookie - 78 16 Set 2020, 01:29:19
80. Andy Pope Amateur - 84 15 Set 2020, 20:51:03
81. Nicolaj Birkholm Amateur - 56 15 Set 2020, 20:40:29
82. Carlos Daniel Gregoret Rookie - 132 15 Set 2020, 19:49:36
83. Erik Harken Pro - 13 15 Set 2020, 19:37:22
84. Alan Snyder Amateur - 4 15 Set 2020, 19:13:25
85. Bruno Carvalho Amateur - 48 15 Set 2020, 16:38:23
86. Stefano Duo Amateur - 19 15 Set 2020, 10:57:19
87. Mauro Saccoccia Amateur - 34 14 Set 2020, 19:41:28
88. Patrick Paarhuis Amateur - 58 14 Set 2020, 19:39:55
89. Willem Page Amateur - 91 14 Set 2020, 19:09:19
90. Jojo Hutchins Rookie - 75 14 Set 2020, 18:42:51
91. Mauro Pisani Amateur - 58 14 Set 2020, 18:39:14
92. Fahriza Naufall Amateur - 73 14 Set 2020, 18:10:37
93. Aswin Witte Rookie - 138 14 Set 2020, 17:07:21
94. Augusto Carlos Amateur - 40 14 Set 2020, 16:35:55
95. John Def Amateur - 60 14 Set 2020, 15:30:40
96. Joaquín Quintana Master - 3 14 Set 2020, 14:31:01
97. Arjen Van Buren Rookie - 137 14 Set 2020, 12:07:59
98. Alex Popa Amateur - 55 14 Set 2020, 11:57:24
99. Richard Robin Paukson Amateur - 57 14 Set 2020, 10:28:47
100. Danniel Cao Amateur - 10 14 Set 2020, 05:05:39